User: anonymous   Login
Location: Newark
(0.5333°S, 166.9167°E)
Time: 22:02:43
(UTC+00:00)
Language:

AO-7 - Orbit

View from above orbital plane
View from above orbital plane
View from above satellite
View from above satellite

Ground track
Ground track

The orbit data is extracted from the following two-line orbital elements,

1  7530U 74089B   19317.51004740 -.00000042  00000-0  17460-4 0  9994
2  7530 101.7666 283.7626 0012510  62.0547  51.3406 12.53640799 59044
Epoch (UTC): 13 November 2019 12:14:28
Eccentricity: 0.0012510
inclination: 101.7666°
perigee height: 1439 km
apogee height: 1459 km
right ascension of ascending node: 283.7626°
argument of perigee: 62.0547°
revolutions per day: 12.53640799
mean anomaly at epoch: 51.3406°
orbit number at epoch: 5904

The dashed part of the orbit path shows where the satellite is in the earth's shadow,  

DLR